Flag for China Weather past 2 weeks in Guilin, Guangxi, China

Now
48 °F

Clear.


Feels Like: 45 °F
Forecast: 36 / 61 °F
Wind: 8 mph from Northeast

Location: Guilin Airport

Current Time: Dec 21, 2014 at 9:12:47 PM

Latest Report: Dec 21, 2014 at 8:00 PM


Visibility: 5 mi

Pressure: 30.42 "Hg

Humidity: 32%

Dew point: 19 °F

Location of GuilinLocation

Historic Weather in Guilin — Graph

°F

Guilin temperature yesterday

Maximum temperature yesterday: 64 °F (at 4:00 PM)
Minimum temperature yesterday: 34 °F (at 6:00 AM)
Average temperature yesterday: 47 °F

Past Weeks' High & Low Weather Summary

 TemperatureHumidityPressure
High64 °F (Dec 20, 4:00 PM)100% (Dec 7, 2:00 AM)30.57 "Hg (Dec 7, 2:00 AM)
Low32 °F (Dec 18, 6:00 AM)11% (Dec 17, 2:00 PM)30.07 "Hg (Dec 20, 4:00 PM)
Average49 °F61%30.32 "Hg
* Reported Dec 6 7:00 PM — Dec 21 7:00 PM, Guilin, Weather by CustomWeather, © 2014

Note: Actual official high and low records may vary slightly from our data, if they occured in-between our weather recording intervals... More about our weather records

Advertising

Guilin weather history for previous 24 hours

 ConditionsComfort  
Time TempWeatherWind HumidityBarometerVisibility
7:00 PM
Dec 21
50 °FClear.13 mph30%30.42 "Hg5 mi
6:00 PM52 °FClear.15 mph30%30.39 "Hg4 mi
5:00 PM54 °FClear.15 mph30%30.39 "Hg4 mi
4:00 PM55 °FClear.15 mph31%30.39 "Hg4 mi
3:00 PM57 °FClear.13 mph31%30.39 "Hg4 mi
2:00 PM57 °FClear.13 mph33%30.39 "Hg4 mi
1:00 PM55 °FClear.13 mph38%30.45 "Hg4 mi
12:00 PM55 °FClear.13 mph41%30.48 "Hg4 mi
11:00 AM54 °FClear.15 mph47%30.48 "Hg4 mi
10:00 AM52 °FClear.10 mph54%30.48 "Hg4 mi
9:00 AM48 °FClear.6 mph71%30.45 "Hg4 mi
8:00 AM39 °FClear.No wind93%30.42 "Hg5 mi
7:00 AM37 °FFog.No wind93%30.39 "Hg3 mi
6:00 AM37 °FFog.No wind93%30.33 "Hg2 mi
5:00 AM37 °FFog.No wind93%30.33 "Hg3 mi
4:00 AM37 °FFog.No wind93%30.30 "Hg3 mi
3:00 AM37 °FFog.1 mph93%30.27 "Hg3 mi
2:00 AM39 °FFog.1 mph87%30.27 "Hg3 mi
1:00 AM41 °FFog.1 mph87%30.24 "Hg3 mi
12:00 AM41 °FFog.1 mph87%30.21 "Hg3 mi
11:00 PM
Dec 20
43 °FClear.1 mph76%30.18 "Hg4 mi
10:00 PM45 °FClear.3 mph76%30.15 "Hg4 mi
9:00 PM46 °FClear.3 mph71%30.12 "Hg4 mi
Weather by CustomWeather, © 2014

See weather overviewHow to use our weather pages